This demonstration page uses our WeatherBlox Daily Observations layout. Learn more.

Left ArrowRight Arrow

39.95238, -75.16362

Hourly Observations for June 1, 2020

Temp ( °F °C ) Dew Point ( °F °C ) Humidity (%) Winds ( mph kmh ) Pressure ( in mb ) Visibility ( mi km ) Precip ( " mm )
12:54 am 00:54 Clear 57 13.9 33 0.6 41 41 N 8 13 30.20 1023 10 16 0.00 0.00
1:54 am 01:54 Clear 56 13.3 32 0 40 40 N 8 13 30.22 1023 10 16 0.00 0.00
2:54 am 02:54 Mostly Clear 55 12.8 32 0 42 42 N 8 13 30.22 1024 10 16 0.00 0.00
3:54 am 03:54 Clear 53 11.7 32 0 45 45 N 5 7 30.24 1024 10 16 0.00 0.00
4:54 am 04:54 Clear 54 12.2 32 0 43 43 WNW 5 7 30.25 1024 10 16 0.00 0.00
5:54 am 05:54 Mostly Sunny 51 10.6 35 1.7 54 54 NW 3 6 30.26 1025 10 16 0.00 0.00
6:54 am 06:54 Partly Cloudy 53 11.7 36 2.2 52 52 NNW 5 7 30.28 1025 10 16 0.00 0.00
7:54 am 07:54 Mostly Cloudy 56 13.3 33 0.6 42 42 NNW 6 9 30.29 1026 10 16 0.00 0.00
8:54 am 08:54 Mostly Cloudy 60 15.6 35 1.7 39 39 NW 8 13 30.30 1026 10 16 0.00 0.00
9:54 am 09:54 Mostly Cloudy 62 16.7 37 2.8 40 40 N 10 17 30.29 1026 10 16 0.00 0.00
10:54 am 10:54 Mostly Cloudy 65 18.3 36 2.2 34 34 W 12 19 30.27 1025 10 16 0.00 0.00
11:54 am 11:54 Mostly Cloudy 66 18.9 36 2.2 33 33 W 14 22 30.24 1024 10 16 0.00 0.00
12:54 pm 12:54 Partly Cloudy 67 19.4 36 2.2 32 32 WNW 12 19 30.22 1023 10 16 0.00 0.00
1:54 pm 13:54 Mostly Cloudy 67 19.4 37 2.8 33 33 WSW 12 19 30.19 1022 10 16 0.00 0.00
2:54 pm 14:54 Mostly Cloudy 69 20.6 37 2.8 31 31 NW 12 19 30.17 1022 10 16 0.00 0.00
3:54 pm 15:54 Mostly Cloudy 71 21.7 37 2.8 29 29 WNW 13 20 30.15 1021 10 16 0.00 0.00
4:54 pm 16:54 Mostly Cloudy 72 22.2 37 2.8 28 28 NW 16 26 30.13 1020 10 16 0.00 0.00
5:54 pm 17:54 Partly Cloudy 72 22.2 35 1.7 26 26 WNW 15 24 30.11 1020 10 16 0.00 0.00
6:54 pm 18:54 Partly Cloudy 73 22.8 36 2.2 26 26 WNW 13 20 30.11 1020 10 16 0.00 0.00
7:54 pm 19:54 Partly Cloudy 71 21.7 37 2.8 29 29 W 10 17 30.11 1020 10 16 0.00 0.00
8:54 pm 20:54 Partly Cloudy 68 20 42 5.6 39 39 WSW 7 11 30.11 1020 10 16 0.00 0.00
9:54 pm 21:54 Partly Cloudy 67 19.4 43 6.1 42 42 SW 6 9 30.13 1020 10 16 0.00 0.00
10:54 pm 22:54 Clear 65 18.3 43 6.1 45 45 SW 13 20 30.13 1020 10 16 0.00 0.00
11:54 pm 23:54 Clear 63 17.2 46 7.8 54 54 SW 10 17 30.13 1020 10 16 0.00 0.00

Powered by AerisWeather